Location: LDNL
(36.4545°S, 141.6685°E)
Time: 12:56:00
(UTC+11:00)

Courier 1B Rocket - Pass Details

Date: 30 January 2023
Orbit: 920 x 1202 km, 28.2° (Epoch: 25 March)

Event Time Altitude Azimuth Distance (km) Brightness Sun altitude
Rises 10:17:45 0° 280° (W) 4,074 7.8 40.6°
Reaches altitude 10° 10:20:47 10° 286° (WNW) 3,086 7.3 41.2°
Maximum altitude 10:27:57 44° 355° (N) 1,509 6.6 42.7°
Drops below altitude 10° 10:34:41 10° 65° (ENE) 2,904 8.5 44.0°
Sets 10:37:27 0° 71° (ENE) 3,814 8.9 44.5°
